Flag for Russia Weather past 2 weeks in Kazan, Russia

Now
66 °F

Sunny.


Feels Like: 66 °F
Forecast: 54 / 69 °F
Wind: 17 mph from Northwest

Location: Kazan'

Current Time: Jul 7, 2015 at 4:18:47 PM

Latest Report: Jul 7, 2015 at 4:00 PM


Visibility: 10 mi

Pressure: 29.83 "Hg

Humidity: 30%

Dew point: 34 °F

Location of KazanLocation

Historic Weather in Kazan — Graph

°F

Kazan temperature yesterday

Maximum temperature yesterday: 68 °F (at 12:00 PM)
Minimum temperature yesterday: 48 °F (at 11:30 PM)
Average temperature yesterday: 59 °F

Past Weeks' High & Low Weather Summary

 TemperatureHumidityPressure
High91 °F (Jun 23, 12:30 PM)100% (Jul 5, 2:03 AM)30.04 "Hg (Jul 5, 2:03 AM)
Low45 °F (Jul 7, 2:30 AM)28% (Jul 2, 3:30 PM)29.65 "Hg (Jun 28, 4:30 PM)
Average71 °F66%29.82 "Hg
* Reported Jun 22 3:00 PM — Jul 7 3:00 PM, Kazan, Weather by CustomWeather, © 2015

Note: Actual official high and low records may vary slightly from our data, if they occured in-between our weather recording intervals... More about our weather records

Advertising

Kazan weather history for previous 24 hours

 ConditionsComfort  
Time TempWeatherWind HumidityBarometerVisibility
3:00 PM
Tue, Jul 7
64 °FSunny.15 mph34%29.86 "Hg10 mi
2:30 PM64 °FSunny.22 mph34%29.86 "Hg10 mi
2:00 PM63 °FSunny.15 mph34%29.86 "Hg10 mi
1:30 PM63 °FSunny.15 mph34%29.86 "Hg10 mi
1:00 PM63 °FSunny.17 mph37%29.86 "Hg10 mi
12:30 PM61 °FPassing clouds.13 mph36%29.86 "HgN/A
12:00 PM63 °FSunny.15 mph39%29.86 "Hg10 mi
11:30 AM61 °FSunny.15 mph42%29.86 "Hg10 mi
11:00 AM59 °FPartly sunny.15 mph42%29.86 "HgN/A
10:30 AM61 °FPartly sunny.17 mph36%29.86 "HgN/A
10:00 AM59 °FScattered clouds.15 mph42%29.86 "HgN/A
9:30 AM59 °FScattered clouds.15 mph45%29.86 "HgN/A
9:00 AM57 °FBroken clouds.13 mph51%29.86 "HgN/A
8:30 AM57 °FBroken clouds.13 mph51%29.89 "HgN/A
8:00 AM55 °FScattered clouds.15 mph59%29.89 "HgN/A
7:30 AM55 °FScattered clouds.15 mph63%29.86 "HgN/A
7:00 AM54 °FSunny.15 mph63%29.86 "Hg10 mi
6:30 AM52 °FSunny.13 mph67%29.86 "Hg10 mi
6:00 AM52 °FSunny.13 mph72%29.86 "Hg10 mi
5:30 AM50 °FSunny.8 mph76%29.86 "Hg10 mi
5:00 AM48 °FSunny.8 mph82%29.86 "Hg10 mi
4:30 AM46 °FSunny.8 mph82%29.86 "Hg10 mi
4:00 AM45 °FClear.8 mph87%29.86 "Hg10 mi
3:30 AM45 °FClear.8 mph87%29.86 "Hg10 mi
3:00 AM45 °FClear.8 mph87%29.86 "Hg10 mi
2:30 AM45 °FClear.13 mph81%29.86 "Hg10 mi
2:00 AM46 °FClear.10 mph82%29.86 "Hg10 mi
1:30 AM46 °FClear.10 mph76%29.83 "Hg10 mi
12:30 AM48 °FClear.10 mph71%29.83 "Hg10 mi
12:00 AM48 °FClear.13 mph71%29.83 "Hg10 mi
11:30 PM
Mon, Jul 6
48 °FClear.17 mph71%29.83 "Hg10 mi
11:00 PM50 °FClear.10 mph67%29.83 "Hg10 mi
10:30 PM50 °FClear.13 mph62%29.80 "Hg10 mi
10:00 PM50 °FClear.8 mph62%29.80 "Hg10 mi
9:30 PM52 °FClear.13 mph58%29.80 "Hg10 mi
9:00 PM54 °FSunny.10 mph51%29.80 "Hg10 mi
8:30 PM54 °FSunny.10 mph51%29.80 "Hg10 mi
8:00 PM54 °FSunny.10 mph51%29.80 "Hg10 mi
7:30 PM55 °FSunny.15 mph44%29.80 "Hg10 mi
7:00 PM55 °FSunny.10 mph55%29.77 "Hg10 mi
6:30 PM57 °FBroken clouds.15 mph48%29.77 "HgN/A
6:00 PM59 °FSunny.10 mph48%29.77 "Hg10 mi
5:30 PM61 °FPartly sunny.22 mph39%29.74 "HgN/A
5:00 PM59 °FPartly sunny.20 mph45%29.74 "HgN/A
4:30 PM61 °FPartly sunny.17 mph48%29.74 "HgN/A
4:00 PM59 °FPartly sunny.20 mph59%29.74 "HgN/A
Weather by CustomWeather, © 2015

See weather overviewHow to use our weather pages